This is the latest recevied weather packets stored in our database for station/object OK2JV-13. If no packets are shown the sender has not sent any weather packets the latest 10 day(s).
| Time | Temp. | Humidity | Pressure | Rain* | Wind** | Luminosity | Snow |
|---|---|---|---|---|---|---|---|
| 1787586560 | 21.11° C | 36% | 1018.2 hPa | - | - | - | - |
| 1787585955 | 21.11° C | 36% | 1018.2 hPa | - | - | - | - |
| 1787585351 | 21.67° C | 35% | 1018.3 hPa | - | - | - | - |
| 1787584746 | 21.67° C | 34% | 1018.5 hPa | - | - | - | - |
| 1787584142 | 22.22° C | 35% | 1018.7 hPa | - | - | - | - |
| 1787583535 | 22.78° C | 32% | 1018.6 hPa | - | - | - | - |
| 1787582931 | 23.33° C | 31% | 1018.7 hPa | - | - | - | - |
| 1787582327 | 23.33° C | 31% | 1018.8 hPa | - | - | - | - |
| 1787581723 | 23.33° C | 31% | 1018.8 hPa | - | - | - | - |
| 1787581119 | 23.33° C | 31% | 1019 hPa | - | - | - | - |
| 1787580516 | 23.33° C | 31% | 1018.9 hPa | - | - | - | - |
| 1787579912 | 23.33° C | 31% | 1018.9 hPa | - | - | - | - |
| 1787579310 | 23.33° C | 31% | 1019 hPa | - | - | - | - |
| 1787578703 | 22.78° C | 31% | 1019.2 hPa | - | - | - | - |
| 1787578099 | 22.78° C | 31% | 1019.3 hPa | - | - | - | - |
| 1787577495 | 22.78° C | 33% | 1019.2 hPa | - | - | - | - |
| 1787576893 | 22.78° C | 32% | 1019.2 hPa | - | - | - | - |
| 1787576287 | 22.78° C | 32% | 1019.3 hPa | - | - | - | - |
| 1787575683 | 22.78° C | 32% | 1019.4 hPa | - | - | - | - |
| 1787575079 | 22.78° C | 32% | 1019.3 hPa | - | - | - | - |
| 1787574475 | 22.78° C | 33% | 1019.1 hPa | - | - | - | - |
| 1787573871 | 22.22° C | 37% | 1019.3 hPa | - | - | - | - |
| 1787573267 | 22.22° C | 39% | 1019.1 hPa | - | - | - | - |
| 1787572663 | 21.67° C | 40% | 1019.1 hPa | - | - | - | - |
| 1787572059 | 21.67° C | 40% | 1019 hPa | - | - | - | - |
* Rain since midnight (hover to see other rain measurements)
** Current wind speed in m/s (hover to see current wind gust speed)